When you browse on this site, cookies collect data to enhance your experience and personalize the content and advertising you see.
Visit our Privacy Policy to learn more. By continuing to use the site, you agree to this use of cookies and data.
  • In United Kingdom
  • List of Countries
  • For 7 days
  • Water Temperature
  • Weather Map
  • Weather Widgets
  • user-avatar
    Login

    Hourly Weather Kikinda

    Today, 22 September, Sunday

    Time Temperature Precipitation Wind Pressure Humidity
    00:00 +13°C° 0 mm 2 mps 761 mmHg 44%
    01:00 +12°C° 0 mm 2 mps 760 mmHg 46%
    02:00 +12°C° 0 mm 2 mps 760 mmHg 48%
    03:00 +10°C° 0 mm 2 mps 760 mmHg 49%
    04:00 +10°C° 0 mm 2 mps 759 mmHg 50%
    05:00 +12°C° 0 mm 2 mps 759 mmHg 47%
    06:00 +12°C° 0 mm 2 mps 759 mmHg 44%
    07:00 +13°C° 0 mm 2 mps 759 mmHg 41%
    08:00 +16°C° 0 mm 3 mps 759 mmHg 35%
    09:00 +19°C° 0 mm 3 mps 759 mmHg 28%
    10:00 +21°C° 0 mm 4 mps 759 mmHg 22%
    11:00 +23°C° 0 mm 4 mps 758 mmHg 20%
    12:00 +25°C° 0 mm 3 mps 757 mmHg 19%
    13:00 +26°C° 0 mm 3 mps 757 mmHg 17%
    14:00 +27°C° 0 mm 3 mps 756 mmHg 17%
    15:00 +27°C° 0 mm 3 mps 755 mmHg 17%
    16:00 +27°C° 0 mm 2 mps 755 mmHg 18%
    17:00 +25°C° 0 mm 2 mps 755 mmHg 20%
    18:00 +23°C° 0 mm 1 mps 755 mmHg 23%
    19:00 +20°C° 0 mm 1 mps 755 mmHg 26%
    20:00 +21°C° 0 mm 1 mps 755 mmHg 26%
    21:00 +21°C° 0 mm 1 mps 755 mmHg 26%
    22:00 +20°C° 0 mm 2 mps 755 mmHg 27%
    23:00 +19°C° 0 mm 2 mps 755 mmHg 30%

    Tomorrow, 23 September, Monday

    Time Temperature Precipitation Wind Pressure Humidity
    00:00 +19°C° 0 mm 2 mps 755 mmHg 33%
    01:00 +19°C° 0 mm 2 mps 754 mmHg 36%
    02:00 +19°C° 0 mm 2 mps 754 mmHg 40%
    03:00 +19°C° 0 mm 2 mps 754 mmHg 43%
    04:00 +18°C° 0 mm 2 mps 753 mmHg 46%
    05:00 +18°C° 0.1 mm 2 mps 753 mmHg 48%
    06:00 +18°C° 0.1 mm 2 mps 754 mmHg 50%
    07:00 +18°C° 0.1 mm 2 mps 754 mmHg 52%
    08:00 +18°C° 0.1 mm 2 mps 754 mmHg 54%
    09:00 +18°C° 0.1 mm 3 mps 754 mmHg 56%
    10:00 +18°C° 0.1 mm 3 mps 754 mmHg 58%
    11:00 +18°C° 0.1 mm 3 mps 754 mmHg 57%
    12:00 +18°C° 0.1 mm 2 mps 754 mmHg 57%
    13:00 +18°C° 0.1 mm 2 mps 754 mmHg 56%
    14:00 +18°C° 0.3 mm 2 mps 754 mmHg 61%
    15:00 +17°C° 0.3 mm 2 mps 753 mmHg 66%
    16:00 +16°C° 0.3 mm 2 mps 753 mmHg 71%
    17:00 +16°C° 0.1 mm 2 mps 753 mmHg 74%
    18:00 +15°C° 0.1 mm 2 mps 753 mmHg 78%
    19:00 +14°C° 0.1 mm 2 mps 753 mmHg 81%
    20:00 +14°C° 0 mm 2 mps 753 mmHg 83%
    21:00 +14°C° 0 mm 2 mps 753 mmHg 84%
    22:00 +14°C° 0 mm 2 mps 753 mmHg 86%
    23:00 +14°C° 0 mm 2 mps 753 mmHg 87%

    Day after tomorrow, 24 September, Tuesday

    Time Temperature Precipitation Wind Pressure Humidity
    00:00 +14°C° 0 mm 2 mps 753 mmHg 87%
    01:00 +14°C° 0 mm 2 mps 753 mmHg 88%
    02:00 +15°C° 0 mm 2 mps 752 mmHg 86%
    03:00 +15°C° 0 mm 2 mps 752 mmHg 84%
    04:00 +15°C° 0 mm 2 mps 752 mmHg 82%
    05:00 +15°C° 0 mm 2 mps 752 mmHg 81%
    06:00 +15°C° 0 mm 2 mps 752 mmHg 80%
    07:00 +15°C° 0 mm 2 mps 752 mmHg 79%
    08:00 +15°C° 0.4 mm 2 mps 752 mmHg 80%
    09:00 +15°C° 0.4 mm 1 mps 752 mmHg 80%
    10:00 +15°C° 0.4 mm 1 mps 753 mmHg 81%
    11:00 +15°C° 0.3 mm 1 mps 753 mmHg 81%
    12:00 +15°C° 0.3 mm 1 mps 752 mmHg 82%
    13:00 +15°C° 0.3 mm 2 mps 752 mmHg 83%
    14:00 +15°C° 0 mm 2 mps 752 mmHg 83%
    15:00 +16°C° 0 mm 2 mps 752 mmHg 83%
    16:00 +16°C° 0 mm 2 mps 752 mmHg 82%
    17:00 +15°C° 0 mm 2 mps 752 mmHg 84%
    18:00 +15°C° 0 mm 2 mps 752 mmHg 86%
    19:00 +15°C° 0 mm 1 mps 752 mmHg 88%
    20:00 +15°C° 0 mm 2 mps 752 mmHg 88%
    21:00 +15°C° 0 mm 2 mps 752 mmHg 88%
    22:00 +15°C° 0 mm 2 mps 752 mmHg 88%
    23:00 +15°C° 0 mm 2 mps 752 mmHg 90%

    25 September, Wednesday

    Time Temperature Precipitation Wind Pressure Humidity
    00:00 +14°C° 0 mm 2 mps 752 mmHg 91%
    01:00 +14°C° 0 mm 2 mps 752 mmHg 93%
    02:00 +14°C° 0 mm 2 mps 752 mmHg 94%
    03:00 +13°C° 0 mm 2 mps 752 mmHg 94%
    04:00 +13°C° 0 mm 2 mps 752 mmHg 95%
    05:00 +14°C° 0 mm 2 mps 751 mmHg 93%
    06:00 +14°C° 0 mm 2 mps 751 mmHg 91%
    07:00 +14°C° 0 mm 2 mps 751 mmHg 88%
    08:00 +16°C° 0 mm 2 mps 751 mmHg 80%
    09:00 +18°C° 0 mm 2 mps 752 mmHg 72%
    10:00 +19°C° 0 mm 2 mps 752 mmHg 64%
    11:00 +20°C° 0 mm 2 mps 751 mmHg 62%
    12:00 +20°C° 0 mm 2 mps 751 mmHg 61%
    13:00 +21°C° 0 mm 2 mps 751 mmHg 59%
    14:00 +20°C° 0.1 mm 2 mps 751 mmHg 61%
    15:00 +21°C° 0.1 mm 1 mps 750 mmHg 64%
    16:00 +20°C° 0.1 mm 1 mps 750 mmHg 66%
    17:00 +20°C° 0 mm 1 mps 750 mmHg 69%
    18:00 +19°C° 0 mm 1 mps 750 mmHg 72%
    19:00 +18°C° 0 mm 1 mps 750 mmHg 75%
    20:00 +18°C° 0 mm 1 mps 751 mmHg 77%
    21:00 +16°C° 0 mm 1 mps 751 mmHg 79%
    22:00 +16°C° 0 mm 1 mps 751 mmHg 81%
    23:00 +16°C° 0 mm 1 mps 751 mmHg 83%

    26 September, Thursday

    Time Temperature Precipitation Wind Pressure Humidity
    00:00 +15°C° 0 mm 1 mps 751 mmHg 85%
    01:00 +15°C° 0 mm 1 mps 751 mmHg 87%
    02:00 +15°C° 0.2 mm 2 mps 751 mmHg 87%
    03:00 +15°C° 0.2 mm 2 mps 751 mmHg 86%
    04:00 +15°C° 0.2 mm 2 mps 752 mmHg 85%
    05:00 +14°C° 0.2 mm 3 mps 752 mmHg 84%
    06:00 +14°C° 0.2 mm 3 mps 752 mmHg 83%
    07:00 +14°C° 0.2 mm 4 mps 752 mmHg 82%
    08:00 +15°C° 0.1 mm 4 mps 753 mmHg 81%
    09:00 +16°C° 0.1 mm 3 mps 754 mmHg 81%
    10:00 +16°C° 0.1 mm 3 mps 754 mmHg 80%
    11:00 +18°C° 0 mm 3 mps 754 mmHg 70%
    12:00 +20°C° 0 mm 4 mps 754 mmHg 61%
    13:00 +21°C° 0 mm 4 mps 754 mmHg 52%
    14:00 +22°C° 0 mm 4 mps 754 mmHg 49%
    15:00 +22°C° 0 mm 4 mps 754 mmHg 46%
    16:00 +22°C° 0 mm 5 mps 754 mmHg 43%
    17:00 +21°C° 0 mm 4 mps 754 mmHg 48%
    18:00 +19°C° 0 mm 3 mps 754 mmHg 53%
    19:00 +18°C° 0 mm 3 mps 754 mmHg 58%
    20:00 +18°C° 0 mm 3 mps 755 mmHg 58%
    21:00 +17°C° 0 mm 3 mps 755 mmHg 59%
    22:00 +17°C° 0 mm 3 mps 755 mmHg 59%
    23:00 +16°C° 0 mm 3 mps 755 mmHg 63%

    27 September, Friday

    Time Temperature Precipitation Wind Pressure Humidity
    00:00 +14°C° 0 mm 3 mps 756 mmHg 66%
    01:00 +14°C° 0 mm 3 mps 756 mmHg 70%
    02:00 +14°C° 0 mm 2 mps 756 mmHg 73%
    03:00 +14°C° 0 mm 2 mps 756 mmHg 76%
    04:00 +14°C° 0 mm 2 mps 756 mmHg 80%
    05:00 +14°C° 0 mm 2 mps 756 mmHg 77%
    06:00 +15°C° 0 mm 2 mps 756 mmHg 75%
    07:00 +16°C° 0 mm 2 mps 756 mmHg 73%
    08:00 +18°C° 0 mm 2 mps 756 mmHg 64%
    09:00 +20°C° 0 mm 2 mps 757 mmHg 56%
    10:00 +23°C° 0 mm 2 mps 757 mmHg 47%
    11:00 +24°C° 0 mm 2 mps 756 mmHg 44%
    12:00 +25°C° 0 mm 2 mps 756 mmHg 41%
    13:00 +26°C° 0 mm 2 mps 755 mmHg 38%
    14:00 +26°C° 0 mm 1 mps 755 mmHg 37%
    15:00 +26°C° 0 mm 1 mps 755 mmHg 37%
    16:00 +26°C° 0 mm 1 mps 755 mmHg 37%
    17:00 +24°C° 0 mm 1 mps 755 mmHg 42%
    18:00 +22°C° 0 mm 1 mps 755 mmHg 47%
    19:00 +20°C° 0 mm 2 mps 755 mmHg 51%
    20:00 +19°C° 0 mm 2 mps 755 mmHg 54%
    21:00 +20°C° 0 mm 1 mps 756 mmHg 56%
    22:00 +19°C° 0 mm 1 mps 756 mmHg 58%
    23:00 +19°C° 0 mm 1 mps 756 mmHg 60%
    Show more